This demonstration page uses our WeatherBlox Daily Observations layout. Learn more.

Left ArrowRight Arrow

Hourly Observations for June 9, 2016

Temp ( °F °C ) Dew Point ( °F °C ) Humidity (%) Winds ( mph kmh ) Pressure ( in mb ) Visibility ( mi km ) Precip ( " mm )
12:53 am 00:53 Clear 75 23.9 52 11.1 45 45 SSW 8 13 29.80 1009 10 16 0.00 0.00
1:53 am 01:53 Clear 73 22.8 51 10.6 46 46 S 5 7 29.80 1009 10 16 0.00 0.00
2:53 am 02:53 Clear 67 19.4 52 11.1 59 59 Calm 29.82 1010 10 16 0.00 0.00
3:53 am 03:53 Clear 66 18.9 51 10.6 59 59 SSE 9 15 29.83 1010 10 16 0.00 0.00
4:53 am 04:53 Clear 66 18.9 51 10.6 59 59 WSW 6 9 29.84 1011 10 16 0.00 0.00
5:53 am 05:53 Sunny 64 17.8 50 10 60 60 WSW 6 9 29.85 1011 10 16 0.00 0.00
6:53 am 06:53 Sunny 64 17.8 51 10.6 63 63 SSE 5 7 29.87 1012 10 16 0.00 0.00
7:53 am 07:53 Sunny 66 18.9 52 11.1 61 61 SSE 7 11 29.88 1012 10 16 0.00 0.00
8:53 am 08:53 Sunny 68 20 52 11.1 57 57 SSE 6 9 29.88 1012 10 16 0.00 0.00
9:53 am 09:53 Sunny 70 21.1 52 11.1 53 53 Calm 29.88 1012 10 16 0.00 0.00
10:53 am 10:53 Sunny 75 23.9 52 11.1 45 45 S 3 6 29.86 1011 10 16 0.00 0.00
11:53 am 11:53 Sunny 78 25.6 52 11.1 40 40 SW 5 7 29.85 1011 10 16 0.00 0.00
12:53 pm 12:53 Sunny 82 27.8 46 7.8 28 28 Calm 29.83 1010 10 16 0.00 0.00
1:53 pm 13:53 Sunny 85 29.4 44 6.7 24 24 SW 13 20 29.81 1010 10 16 0.00 0.00
2:53 pm 14:53 Sunny 86 30 39 3.9 19 19 S 14 22 29.80 1009 10 16 0.00 0.00
3:53 pm 15:53 Sunny 86 30 39 3.9 19 19 SSE 15 24 29.78 1009 10 16 0.00 0.00
4:53 pm 16:53 Sunny 86 30 42 5.6 21 21 S 12 19 29.77 1008 10 16 0.00 0.00
5:53 pm 17:53 Sunny 84 28.9 46 7.8 27 27 S 10 17 29.75 1008 10 16 0.00 0.00
6:53 pm 18:53 Sunny 84 28.9 52 11.1 33 33 S 9 15 29.74 1007 10 16 0.00 0.00
7:53 pm 19:53 Sunny 81 27.2 56 13.3 42 42 S 13 20 29.75 1007 10 16 0.00 0.00
8:53 pm 20:53 Clear 77 25 59 15 54 54 S 9 15 29.76 1008 10 16 0.00 0.00
9:53 pm 21:53 Partly Cloudy 77 25 54 12.2 45 45 WNW 6 9 29.78 1009 10 16 0.00 0.00
10:53 pm 22:53 Mostly Cloudy 76 24.4 43 6.1 31 31 WNW 5 7 29.78 1009 10 16 0.00 0.00
11:53 pm 23:53 Partly Cloudy 74 23.3 43 6.1 33 33 WNW 3 6 29.79 1009 10 16 0.00 0.00

Powered by AerisWeather